Hourly Data Report for June 08, 2017

BORDEN AWOS
ONTARIO

44°16'20.000" N
79°54'42.000" W
222.50 m
611B002
71534
YBN

Download Data

Hourly Data (June 2017)
Hourly Data Report for June 8, 2017
TIME
LST
Temp Definition
°C
Dew Point Definition
°C
Rel Hum Definition
%
Precip. Amount Definition
mm

Wind Dir Definition
10's deg

Wind Spd Definition
km/h
Visibility Definition
km
Stn Press Definition
kPa
Hmdx Definition


Wind Chill Definition


Weather Definition


00:00 7.7 7.0 95     0 14.5 99.18     LegendNANA
01:00 7.2 7.2 100   23 4 14.5 99.17     LegendNANA
02:00 5.8 5.8 100     0 4.0 99.15     LegendNANA
03:00
04:00 5.2 5.2 100   23 6 0.6 99.12     LegendNANA
05:00 5.3 4.7 96   19 4 14.5 99.13     LegendNANA
06:00 9.0 8.9 99     0 14.5 99.15     LegendNANA
07:00 13.9 11.7 87     0 14.5 99.16     LegendNANA
08:00 18.4 11.4 64   15 6 14.5 99.14     LegendNANA
09:00 20.9 7.8 43   18 9 14.5 99.11     LegendNANA
10:00 22.5 7.7 39   18 9 14.5 99.07     LegendNANA
11:00 23.3 8.6 39   14 15 14.5 98.99     LegendNANA
12:00 24.0 8.9 38   15 19 14.5 98.90 25   LegendNANA
13:00 24.8 9.8 39   14 24 14.5 98.83 26   LegendNANA
14:00 24.2 8.3 36   18 11 14.5 98.74 25   LegendNANA
15:00 24.7 7.8 34   20 19 14.5 98.65 25   LegendNANA
16:00 24.3 8.4 36   17 13 14.5 98.57 25   LegendNANA
17:00 23.8 6.8 34   19 11 14.5 98.53     LegendNANA
18:00 22.5 7.8 39   18 9 14.5 98.48     LegendNANA
19:00 21.1 8.0 43   14 13 14.5 98.44     LegendNANA
20:00 17.9 8.4 54   16 7 14.5 98.40     LegendNANA
21:00 13.2 8.8 75   31 11 14.5 98.39     LegendNANA
22:00 12.6 9.1 79     0 14.5 98.38     LegendNANA
23:00 10.3 8.8 90     0 14.5 98.36     LegendNANA

Notes on Data Quality.

Legend

  • E = Estimated
  • M = Missing
  • NA = Not Available*
  • [empty] = Indicates an unobserved value
Date modified: